Date String (YYYY-MM-DD hh:mm:ss) UTC,Instrument flags,absolute air pressure of the measurement (hPa),sample flow rate (lpm),inlet stack bypass flow (lpm),air temperature of the measurement (°C),ambient temperature measured by the external sensor (°C),aerosol sample conditioner tube jacket temperature (°C),OPC LED temperature (°C),internal box temperature (°C),relative humidity of the measurement (%),span deviation,mass concentration of particles derived from Lorenz-Mie calculation of OPC scattering (μg/m³),mass concentration of particles derived from Lorenz-Mie calculation of OPC scattering (μg/m³),mass concentration of particles derived from Lorenz-Mie calculation of OPC scattering (μg/m³)
DateTimeUTC,F1_M11,P_M11,Q1_M11,Q2_M11,T1_M11,T2_M11,T3_M11,T4_M11,T5_M11,U1_M11,ZSPAN_M11,X2_M11,X0_M11,X1_M11
2023-08-29 10:00:00,SystemResetWarning,0839.2,5.00,000.00,028.3,026.4,000.0,037.0,029.8,30.6,0000.0,0003.39,0008.27,0002.90
2023-08-29 10:01:00,SystemResetWarning,0839.2,5.00,000.00,028.3,026.6,000.0,037.0,029.9,29.7,0000.0,0003.40,0008.12,0002.89
2023-08-29 10:02:00,SystemResetWarning,0839.2,5.00,000.00,028.3,026.7,000.0,037.0,029.9,29.3,0000.0,0003.43,0008.11,0002.90
2023-08-29 10:03:00,SystemResetWarning,0839.2,5.00,000.00,028.4,026.8,000.0,037.0,029.9,29.2,0000.0,0003.46,0008.20,0002.89
2023-08-29 10:04:00,SystemResetWarning,0839.2,5.00,000.00,028.4,026.9,000.0,037.0,029.9,29.0,0000.0,0003.48,0007.39,0002.89
2023-08-29 10:05:00,SystemResetWarning,0839.1,5.00,000.00,028.4,027.0,000.0,037.0,029.9,29.3,0000.0,0003.48,0007.58,0002.89
2023-08-29 10:06:00,SystemResetWarning,0839.2,5.00,000.00,028.4,027.0,000.0,037.0,030.0,29.2,0000.0,0003.46,0007.32,0002.88
2023-08-29 10:07:00,SystemResetWarning,0839.2,5.01,000.00,028.4,027.1,000.0,037.0,030.0,28.8,0000.0,0003.46,0007.21,0002.88
2023-08-29 10:08:00,SystemResetWarning,0839.2,5.00,000.00,028.4,027.1,000.0,037.0,030.0,28.1,0000.0,0003.45,0007.01,0002.88
2023-08-29 10:09:00,SystemResetWarning,0839.2,4.99,000.00,028.5,027.1,000.0,037.1,030.0,28.0,0000.0,0003.41,0006.92,0002.86
2023-08-29 10:10:00,SystemResetWarning,0839.2,4.99,000.00,028.5,027.2,000.0,037.1,030.1,28.1,0000.0,0003.40,0006.64,0002.85
2023-08-29 10:11:00,SystemResetWarning,0839.2,4.99,000.00,028.5,027.2,000.0,037.1,030.1,28.0,0000.0,0003.40,0006.42,0002.85
2023-08-29 10:12:00,SystemResetWarning,0839.2,5.00,000.00,028.5,027.2,000.0,037.1,030.1,28.0,0000.0,0003.42,0006.73,0002.85
2023-08-29 10:13:00,SystemResetWarning,0839.2,5.01,000.00,028.5,027.3,000.0,037.1,030.1,28.3,0000.0,0003.41,0006.84,0002.84
2023-08-29 10:14:00,SystemResetWarning,0839.2,5.00,000.00,028.5,027.3,000.0,037.1,030.1,28.5,0000.0,0003.39,0006.71,0002.85
2023-08-29 10:15:00,SystemResetWarning,0839.1,5.00,000.00,028.6,027.3,000.0,037.1,030.1,28.8,0000.0,0003.38,0006.37,0002.84
2023-08-29 10:16:00,SystemResetWarning,0839.1,4.99,000.00,028.6,027.3,000.0,037.1,030.2,28.1,0000.0,0003.35,0005.38,0002.83
2023-08-29 10:17:00,SystemResetWarning,0839.1,5.00,000.00,028.6,027.3,000.0,037.2,030.2,28.1,0000.0,0003.35,0005.44,0002.83
2023-08-29 10:18:00,SystemResetWarning,0839.1,5.00,000.00,028.6,027.3,000.0,037.2,030.2,28.3,0000.0,0003.35,0005.66,0002.84
2023-08-29 10:19:00,SystemResetWarning,0839.1,5.01,000.00,028.6,027.4,000.0,037.2,030.2,28.4,0000.0,0003.36,0005.72,0002.85
2023-08-29 10:20:00,SystemResetWarning,0839.1,5.01,000.00,028.6,027.4,000.0,037.2,030.2,28.3,0000.0,0003.37,0005.94,0002.86
2023-08-29 10:21:00,SystemResetWarning,0839.1,4.99,000.00,028.6,027.4,000.0,037.2,030.2,28.3,0000.0,0003.38,0006.32,0002.86
2023-08-29 10:22:00,SystemResetWarning,0839.1,4.99,000.00,028.6,027.4,000.0,037.2,030.2,28.2,0000.0,0003.37,0006.28,0002.86
2023-08-29 10:23:00,SystemResetWarning,0839.2,4.99,000.00,028.7,027.4,000.0,037.2,030.2,28.4,0000.0,0003.34,0005.88,0002.86
2023-08-29 10:24:00,SystemResetWarning,0839.1,5.00,000.00,028.7,027.4,000.0,037.3,030.3,28.4,0000.0,0003.33,0005.86,0002.87
2023-08-29 10:25:00,SystemResetWarning,0839.1,5.00,000.00,028.7,027.4,000.0,037.3,030.3,28.1,0000.0,0003.31,0006.19,0002.89
2023-08-29 10:26:00,SystemResetWarning,0839.2,5.01,000.00,028.7,027.5,000.0,037.3,030.3,27.3,0000.0,0003.30,0006.20,0002.89
2023-08-29 10:27:00,SystemResetWarning,0839.2,5.01,000.00,028.7,027.5,000.0,037.3,030.3,26.8,0000.0,0003.29,0006.22,0002.89
2023-08-29 10:28:00,SystemResetWarning,0839.1,5.00,000.00,028.7,027.5,000.0,037.3,030.3,27.2,0000.0,0003.26,0006.05,0002.89
2023-08-29 10:29:00,SystemResetWarning,0839.2,5.01,000.00,028.8,027.5,000.0,037.3,030.3,27.7,0000.0,0003.25,0005.95,0002.87
2023-08-29 10:30:00,SystemResetWarning,0839.1,5.00,000.00,028.8,027.5,000.0,037.3,030.4,28.2,0000.0,0003.24,0006.47,0002.86
2023-08-29 10:31:00,SystemResetWarning,0839.2,4.99,000.00,028.8,027.5,000.0,037.3,030.4,27.7,0000.0,0003.21,0006.49,0002.84
2023-08-29 10:32:00,SystemResetWarning,0839.2,5.00,000.00,028.8,027.5,000.0,037.3,030.3,27.2,0000.0,0003.21,0006.05,0002.84
2023-08-29 10:33:00,SystemResetWarning,0839.2,4.99,000.00,028.8,027.5,000.0,037.4,030.4,27.8,0000.0,0003.22,0006.37,0002.84
2023-08-29 10:34:00,SystemResetWarning,0839.1,5.00,000.00,028.8,027.5,000.0,037.4,030.4,27.8,0000.0,0003.20,0006.97,0002.84
2023-08-29 10:35:00,SystemResetWarning,0839.2,5.01,000.00,028.8,027.6,000.0,037.4,030.4,27.8,0000.0,0003.19,0006.90,0002.82
2023-08-29 10:36:00,SystemResetWarning,0839.1,5.01,000.00,028.8,027.6,000.0,037.4,030.4,27.1,0000.0,0003.20,0006.36,0002.79
2023-08-29 10:37:00,SystemResetWarning,0839.2,5.00,000.00,028.8,027.6,000.0,037.4,030.4,26.6,0000.0,0003.21,0006.45,0002.76
2023-08-29 10:38:00,SystemResetWarning,0839.2,5.00,000.00,028.8,027.6,000.0,037.4,030.4,26.5,0000.0,0003.24,0006.54,0002.75
2023-08-29 10:39:00,SystemResetWarning,0839.2,4.99,000.00,028.9,027.6,000.0,037.4,030.4,26.5,0000.0,0003.24,0006.56,0002.73
2023-08-29 10:40:00,SystemResetWarning,0839.2,4.99,000.00,028.9,027.0,000.0,037.4,030.3,26.9,0000.0,0003.26,0006.62,0002.72
2023-08-29 10:41:00,SystemResetWarning,0839.2,5.00,000.00,028.8,024.9,000.0,037.2,030.0,27.6,0000.0,0003.24,0006.05,0002.70
2023-08-29 10:42:00,SystemResetWarning,0839.1,5.00,000.00,028.7,024.1,000.0,037.1,029.7,27.1,0000.0,0003.23,0005.69,0002.68
2023-08-29 10:43:00,SystemResetWarning,0839.2,5.01,000.00,028.5,024.1,000.0,037.1,029.5,27.0,0000.0,0003.22,0005.83,0002.66
2023-08-29 10:44:00,SystemResetWarning,0839.1,5.01,000.00,028.4,024.5,000.0,037.1,029.4,27.0,0000.0,0003.19,0005.61,0002.63
2023-08-29 10:45:00,SystemResetWarning,0839.1,4.99,000.00,028.3,024.9,000.0,037.1,029.5,26.8,0000.0,0003.20,0004.76,0002.62
2023-08-29 10:46:00,SystemResetWarning,0839.2,5.00,000.00,028.3,025.3,000.0,037.1,029.6,26.7,0000.0,0003.19,0004.74,0002.60
2023-08-29 10:47:00,SystemResetWarning,0839.1,5.00,000.00,028.3,025.6,000.0,037.1,029.7,26.8,0000.0,0003.17,0004.86,0002.61
2023-08-29 10:48:00,SystemResetWarning,0839.1,5.00,000.00,028.3,025.9,000.0,037.0,029.7,27.7,0000.0,0003.16,0005.39,0002.61
2023-08-29 10:49:00,SystemResetWarning,0839.1,5.00,000.00,028.3,026.1,000.0,037.0,029.8,28.1,0000.0,0003.13,0005.25,0002.61
2023-08-29 10:50:00,SystemResetWarning,0839.1,5.00,000.00,028.3,026.3,000.0,037.0,029.8,27.1,0000.0,0003.12,0005.24,0002.61
2023-08-29 10:51:00,SystemResetWarning,0839.1,5.01,000.00,028.3,026.5,000.0,037.0,029.8,26.8,0000.0,0003.09,0005.11,0002.60
2023-08-29 10:52:00,SystemResetWarning,0839.1,5.00,000.00,028.3,026.6,000.0,037.0,029.8,26.6,0000.0,0003.09,0005.08,0002.61
2023-08-29 10:53:00,SystemResetWarning,0839.1,5.00,000.00,028.3,026.7,000.0,037.0,029.8,26.5,0000.0,0003.07,0005.06,0002.61
2023-08-29 10:54:00,SystemResetWarning,0839.1,5.00,000.00,028.3,026.8,000.0,037.0,029.9,26.5,0000.0,0003.09,0004.97,0002.63
2023-08-29 10:55:00,SystemResetWarning,0839.1,5.00,000.00,028.3,026.8,000.0,037.0,029.9,26.5,0000.0,0003.12,0005.07,0002.65
2023-08-29 10:56:00,SystemResetWarning,0839.1,5.00,000.00,028.4,026.9,000.0,037.0,029.9,26.5,0000.0,0003.12,0005.22,0002.65
2023-08-29 10:57:00,SystemResetWarning,0839.1,5.00,000.00,028.4,026.9,000.0,037.0,030.0,26.5,0000.0,0003.11,0005.33,0002.64
2023-08-29 10:58:00,SystemResetWarning,0839.1,5.00,000.00,028.4,027.0,000.0,037.0,030.0,26.5,0000.0,0003.14,0005.22,0002.65
2023-08-29 10:59:00,SystemResetWarning,0839.1,5.00,000.00,028.4,027.0,000.0,037.0,030.0,26.3,0000.0,0003.12,0004.47,0002.63
